Regional Weather Roundup
Issued by NWS Cleveland, OH

Home | Current Version | Previous Version | Graphics & Text | Print | Product List | Glossary On
Versions: 1 2 3 4 5 6 7 8 9 10 11 12 13 14 15 16 17 18 19 20 21 22 23 24 25 26 27 28 29 30 31 32 33 34 35 36 37 38 39 40 41 42 43 44 45 46 47 48 49 50
537
ASUS41 KCLE 061312
RWRCLE
OHIO REGIONAL WEATHER ROUNDUP
NATIONAL WEATHER SERVICE WILMINGTON, OH
800 AM EST SAT FEB 06 2016

NOTE: "FAIR" INDICATES FEW OR NO CLOUDS BELOW 12,000 FEET WITH NO
SIGNIFICANT WEATHER AND/OR OBSTRUCTIONS TO VISIBILITY.

OHZ001>008-015>018-024>027-034-035-043-044-061400-
   NORTHWEST OHIO

CITY           SKY/WX    TMP DP  RH WIND       PRES   REMARKS
DEFIANCE       FAIR      24  20  84 CALM      30.33R FOG
FINDLAY        FAIR      24  22  91 S3        30.30S FOG
TOLEDO EXPRESS FAIR      22  20  92 CALM      30.31R FOG
TOLEDO EXEC    FAIR      23  20  88 SW5       30.33R FOG     WCI  17
LIMA           CLOUDY    25  24  96 W7        30.31R FOG     WCI  17
$$

OHZ009>014-019>023-028>033-038-089-061400-
   NORTHEAST OHIO

CITY           SKY/WX    TMP DP  RH WIND       PRES   REMARKS
CLE-HOPKINS    FAIR      25  21  85 SW6       30.33R FOG     WCI  18
CLE-LAKEFRONT  CLOUDY    30  24  78 SW12      30.31R WCI  20
CUY CO. ARPT   CLOUDY    30  27  86 W12       30.31R FOG     WCI  21
LORAIN-ELYRIA  FAIR      25  22  88 W6        30.32R FOG     WCI  18
ASHTABULA      CLOUDY    30  22  72 W9        30.29R WCI  22
AKRON-CANTON   FAIR      26  20  77 W3        30.29R
WOOSTER        MOCLDY    26  22  84 W5        30.30R FOG     WCI  20
MANSFIELD      CLOUDY    25  23  92 W7        30.29S WCI  17
YOUNGSTOWN     MOCLDY    27  18  69 SW7       30.28R WCI  19
$$

OHZ042-051>053-060>062-070>072-077>081-061400-
  SOUTHWEST OHIO

CITY           SKY/WX    TMP DP  RH WIND       PRES   REMARKS
CINC-COVINGTON FAIR      22  21  96 CALM      30.34S FOG
CINC-LUNKEN    FAIR      23  23 100 CALM      30.38S
HAMILTON       FAIR      20  18  92 CALM      30.36S FOG
DAYTON         FAIR      21  19  92 SW6       30.33R FOG     WCI  13
WRIGHT-PAT AFB FAIR      21  20  95 S1        30.33R
DAYTON GENERAL FAIR      22  19  89 CALM      30.32S FOG
WILMINGTON     FAIR      23  20  88 CALM      30.32S FOG
$$

OHZ036-037-039>041-045>050-054>059-063>069-073>076-082>088-061400-
  CENTRAL AND SOUTHEAST OHIO

CITY           SKY/WX    TMP DP  RH WIND       PRES   REMARKS
COLUMBUS       FAIR      25  20  81 W3        30.33S
OSU AIRPORT    FAIR      24  21  88 SW3       30.32S FOG
BOLTON FIELD   CLEAR     21  21 100 W3        30.33S FOG
RICKENBACK AFB FAIR      24  21  91 CALM      30.33S
NEWARK         FAIR      22  18  85 CALM      30.32S
MARION         FAIR      24  19  81 W3        30.32R HAZE
LANCASTER      FAIR      22  18  85 CALM      30.33R
ZANESVILLE     FAIR      29  16  58 S5        30.32S WCI  24
NEW PHILLY     FAIR      29  17  61 CALM      30.32S
$$




USA.gov is the U.S. government's official web portal to all federal, state and local government web resources and services.